| time (UTC) | temp F | wind direction | speed MPH | gust MPH | rain 1hr in | rain 24hr in | rain mn in | humidity % | barometer mb |
| 20260506174543 | 65 | 179 | 4.0 | 12.0 | 0.00 | 0.08 | 0.08 | 89 | 1013.3 |
| 20260506173048 | 64 | 161 | 4.0 | 11.0 | 0.00 | 0.08 | 0.08 | 90 | 1012.7 |
| 20260506171550 | 64 | 202 | 4.0 | 11.0 | 0.03 | 0.08 | 0.08 | 91 | 1013.3 |
| 20260506170050 | 63 | 191 | 3.0 | 10.0 | 0.07 | 0.08 | 0.08 | 91 | 1014.3 |
| 20260506164544 | 63 | 246 | 1.0 | 6.0 | 0.08 | 0.08 | 0.08 | 91 | 1014.9 |
| 20260506163100 | 63 | 187 | 1.0 | 7.0 | 0.08 | 0.08 | 0.08 | 89 | 1015.2 |
| 20260506161542 | 64 | 175 | 3.0 | 6.0 | 0.05 | 0.05 | 0.05 | 87 | 1015.6 |
| 20260506160038 | 65 | 227 | 0.0 | 4.0 | 0.01 | 0.01 | 0.01 | 86 | 1015.6 |
| 20260506154555 | 65 | 0 | 1.0 | 7.0 | 0.00 | 0.00 | 0.00 | 82 | 1015.1 |
| 20260506153045 | 66 | 275 | 1.0 | 7.0 | 0.00 | 0.00 | 0.00 | 80 | 1014.7 |
| 20260506151540 | 65 | 165 | 4.0 | 9.0 | 0.00 | 0.00 | 0.00 | 79 | 1014.2 |
| 20260506150040 | 65 | 225 | 2.0 | 5.0 | 0.00 | 0.00 | 0.00 | 81 | 1013.8 |
| 20260506144537 | 64 | 209 | 2.0 | 8.0 | 0.00 | 0.00 | 0.00 | 81 | 1013.9 |
| 20260506143045 | 64 | 238 | 3.0 | 8.0 | 0.00 | 0.00 | 0.00 | 81 | 1013.5 |
| 20260506141549 | 64 | 171 | 3.0 | 9.0 | 0.00 | 0.00 | 0.00 | 80 | 1013.4 |
| 20260506140053 | 64 | 189 | 3.0 | 9.0 | 0.00 | 0.00 | 0.00 | 79 | 1013.7 |
| 20260506134539 | 64 | 184 | 1.0 | 11.0 | 0.00 | 0.00 | 0.00 | 80 | 1013.9 |
| 20260506133036 | 64 | 186 | 2.0 | 10.0 | 0.00 | 0.00 | 0.00 | 80 | 1013.8 |
| 20260506131545 | 63 | 199 | 2.0 | 8.0 | 0.00 | 0.00 | 0.00 | 80 | 1013.5 |
| 20260506130046 | 63 | 0 | 1.0 | 8.0 | 0.00 | 0.00 | 0.00 | 81 | 1013.4 |
| 20260506124544 | 62 | 200 | 3.0 | 17.0 | 0.00 | 0.00 | 0.00 | 81 | 1013.4 |
| 20260506123040 | 62 | 65 | 3.0 | 11.0 | 0.00 | 0.00 | 0.00 | 82 | 1013.2 |
| 20260506121535 | 61 | 159 | 5.0 | 12.0 | 0.00 | 0.00 | 0.00 | 83 | 1013.2 |
| 20260506120059 | 61 | 196 | 2.0 | 9.0 | 0.00 | 0.00 | 0.00 | 83 | 1013.6 |
| 20260506114550 | 61 | 0 | 1.0 | 8.0 | 0.00 | 0.00 | 0.00 | 83 | 1013.8 |
| 20260506113044 | 60 | 205 | 1.0 | 6.0 | 0.00 | 0.00 | 0.00 | 84 | 1013.8 |
| 20260506111543 | 60 | 213 | 2.0 | 11.0 | 0.00 | 0.00 | 0.00 | 84 | 1013.4 |
| 20260506110035 | 60 | 192 | 3.0 | 10.0 | 0.00 | 0.00 | 0.00 | 84 | 1013.3 |
| 20260506104547 | 60 | 167 | 2.0 | 12.0 | 0.00 | 0.00 | 0.00 | 84 | 1013.2 |
| 20260506103044 | 60 | 215 | 5.0 | 14.0 | 0.00 | 0.00 | 0.00 | 83 | 1013.0 |
| 20260506101545 | 60 | 150 | 4.0 | 15.0 | 0.00 | 0.00 | 0.00 | 83 | 1012.7 |
| 20260506100047 | 61 | 140 | 4.0 | 13.0 | 0.00 | 0.00 | 0.00 | 83 | 1012.8 |
| 20260506094545 | 61 | 161 | 4.0 | 13.0 | 0.00 | 0.00 | 0.00 | 82 | 1012.7 |
| 20260506093101 | 60 | 111 | 1.0 | 10.0 | 0.00 | 0.00 | 0.00 | 83 | 1013.0 |
| 20260506091547 | 60 | 186 | 2.0 | 10.0 | 0.00 | 0.00 | 0.00 | 83 | 1012.9 |
| 20260506090049 | 60 | 189 | 3.0 | 9.0 | 0.00 | 0.00 | 0.00 | 82 | 1013.1 |
| 20260506084544 | 60 | 213 | 2.0 | 9.0 | 0.00 | 0.00 | 0.00 | 82 | 1013.1 |
| 20260506083042 | 61 | 178 | 3.0 | 10.0 | 0.00 | 0.00 | 0.00 | 82 | 1013.1 |
| 20260506081540 | 61 | 221 | 3.0 | 10.0 | 0.00 | 0.00 | 0.00 | 81 | 1013.1 |
| 20260506073045 | 61 | 240 | 3.0 | 16.0 | 0.00 | 0.00 | 0.00 | 77 | 1013.2 |
| 20260506071543 | 62 | 173 | 5.0 | 14.0 | 0.00 | 0.00 | 0.00 | 76 | 1013.3 |
| 20260506061557 | 63 | 138 | 6.0 | 17.0 | 0.00 | 0.00 | 0.00 | 68 | 1013.5 |
| 20260506044540 | 63 | 171 | 1.0 | 4.0 | 0.00 | 0.00 | 0.00 | 63 | 1013.9 |
| 20260506043039 | 64 | 201 | 1.0 | 4.0 | 0.00 | 0.00 | 0.00 | 62 | 1013.9 |
| 20260506041535 | 64 | 0 | 0.0 | 4.0 | 0.00 | 0.00 | 0.00 | 61 | 1013.7 |
| 20260506040053 | 65 | 201 | 2.0 | 6.0 | 0.00 | 0.00 | 0.00 | 60 | 1013.9 |
| 20260506034545 | 65 | 181 | 3.0 | 7.0 | 0.00 | 0.00 | 0.00 | 59 | 1013.8 |
| 20260506033042 | 65 | 167 | 2.0 | 7.0 | 0.00 | 0.00 | 0.00 | 59 | 1014.0 |
| 20260506031542 | 65 | 166 | 1.0 | 5.0 | 0.00 | 0.00 | 0.00 | 59 | 1014.1 |
| 20260506030035 | 65 | 196 | 2.0 | 8.0 | 0.00 | 0.00 | 0.00 | 59 | 1014.0 |
| 20260506024544 | 65 | 207 | 0.0 | 7.0 | 0.00 | 0.00 | 0.00 | 59 | 1014.0 |
| 20260506023052 | 65 | 213 | 0.0 | 5.0 | 0.00 | 0.00 | 0.00 | 58 | 1014.0 |
| 20260506021536 | 65 | 190 | 0.0 | 4.0 | 0.00 | 0.00 | 0.00 | 58 | 1014.0 |
| 20260506020106 | 66 | 229 | 0.0 | 2.0 | 0.00 | 0.00 | 0.00 | 57 | 1014.1 |
| 20260506014544 | 66 | 0 | 0.0 | 0.0 | 0.00 | 0.00 | 0.00 | 56 | 1014.0 |
| 20260506013044 | 67 | 0 | 0.0 | 0.0 | 0.00 | 0.00 | 0.00 | 55 | 1014.1 |
| 20260506011541 | 68 | 0 | 0.0 | 0.0 | 0.00 | 0.00 | 0.00 | 54 | 1014.0 |
| 20260506010035 | 69 | 0 | 0.0 | 0.0 | 0.00 | 0.00 | 0.00 | 52 | 1013.9 |
| 20260506004541 | 69 | 0 | 0.0 | 0.0 | 0.00 | 0.00 | 0.00 | 52 | 1013.9 |
| 20260506003046 | 70 | 0 | 0.0 | 3.0 | 0.00 | 0.00 | 0.00 | 49 | 1013.9 |
| 20260506001547 | 71 | 215 | 0.0 | 3.0 | 0.00 | 0.00 | 0.00 | 48 | 1013.7 |
| 20260506000054 | 72 | 192 | 1.0 | 5.0 | 0.00 | 0.00 | 0.00 | 46 | 1013.6 |
| 20260505234540 | 73 | 196 | 2.0 | 6.0 | 0.00 | 0.00 | 0.00 | 45 | 1013.7 |
| 20260505233049 | 74 | 196 | 3.0 | 9.0 | 0.00 | 0.00 | 0.00 | 44 | 1013.7 |
| 20260505231548 | 74 | 186 | 2.0 | 11.0 | 0.00 | 0.00 | 0.00 | 43 | 1013.7 |
| 20260505230046 | 74 | 225 | 4.0 | 11.0 | 0.00 | 0.00 | 0.00 | 42 | 1013.5 |
| 20260505224544 | 74 | 171 | 4.0 | 12.0 | 0.00 | 0.00 | 0.00 | 42 | 1013.5 |
| 20260505223045 | 75 | 213 | 4.0 | 13.0 | 0.00 | 0.00 | 0.00 | 41 | 1013.5 |
| 20260505221550 | 76 | 216 | 3.0 | 13.0 | 0.00 | 0.00 | 0.00 | 40 | 1013.7 |
| 20260505220044 | 76 | 234 | 4.0 | 16.0 | 0.00 | 0.00 | 0.00 | 40 | 1013.6 |
| 20260505214554 | 76 | 173 | 6.0 | 13.0 | 0.00 | 0.00 | 0.00 | 38 | 1013.6 |
| 20260505213045 | 76 | 188 | 4.0 | 18.0 | 0.00 | 0.00 | 0.00 | 38 | 1013.6 |
| 20260505211608 | 76 | 175 | 7.0 | 18.0 | 0.00 | 0.00 | 0.00 | 37 | 1013.7 |
| 20260505210044 | 76 | 257 | 6.0 | 18.0 | 0.00 | 0.00 | 0.00 | 36 | 1013.8 |
| 20260505204554 | 76 | 261 | 4.0 | 14.0 | 0.00 | 0.00 | 0.00 | 38 | 1013.9 |
| 20260505203047 | 77 | 163 | 5.0 | 14.0 | 0.00 | 0.00 | 0.00 | 35 | 1013.7 |
| 20260505201548 | 77 | 225 | 5.0 | 12.0 | 0.00 | 0.00 | 0.00 | 38 | 1013.9 |
| 20260505200045 | 76 | 186 | 8.0 | 20.0 | 0.00 | 0.00 | 0.00 | 39 | 1014.3 |
| 20260505194546 | 76 | 234 | 8.0 | 20.0 | 0.00 | 0.00 | 0.00 | 37 | 1014.5 |
| 20260505193044 | 77 | 191 | 5.0 | 19.0 | 0.00 | 0.00 | 0.00 | 39 | 1014.6 |
| 20260505191544 | 77 | 161 | 4.0 | 17.0 | 0.00 | 0.00 | 0.00 | 39 | 1014.9 |
| 20260505190041 | 77 | 162 | 4.0 | 15.0 | 0.00 | 0.00 | 0.00 | 39 | 1014.9 |
| 20260505184546 | 77 | 142 | 7.0 | 21.0 | 0.00 | 0.00 | 0.00 | 37 | 1015.3 |
| 20260505183045 | 77 | 225 | 6.0 | 21.0 | 0.00 | 0.00 | 0.00 | 38 | 1015.4 |
| 20260505181605 | 76 | 176 | 7.0 | 17.0 | 0.00 | 0.00 | 0.00 | 39 | 1015.6 |
| 20260505180059 | 75 | 140 | 6.0 | 17.0 | 0.00 | 0.00 | 0.00 | 40 | 1015.9 |